�N����,����,�~����,�C��,���x,�C��,����,���ϕ���,�ő�u�ԕ���,�ő厞����,���˗�,�I�_���x,�n�����x,�ő啗���N��,DTYPE
"17/11/09","00:10",0.0,13.7,98.5,1010.2,307.7,1.1,2.4,308.5,0.00,13.5,14.7,"00:05:04",1
"17/11/09","00:20",0.0,13.7,98.1,1010.4,307.2,1.5,2.9,343.6,0.00,13.4,14.8,"00:10:56",1
"17/11/09","00:30",0.0,13.7,98.2,1011.2,322.9,1.1,2.6,260.5,0.00,13.5,14.8,"00:22:56",1
"17/11/09","00:40",0.0,13.7,97.6,1010.9,283.7,1.0,2.0,298.1,0.00,13.4,14.9,"00:31:44",1
"17/11/09","00:50",0.0,13.5,97.4,1011.4,270.6,1.3,3.1,246.1,0.00,13.1,14.9,"00:46:00",1
"17/11/09","01:00",0.0,13.3,96.6,1011.2,288.8,1.3,2.2,290.2,0.00,12.8,14.8,"00:54:24",1
"17/11/09","01:10",0.0,12.8,96.8,1011.2,317.7,1.5,2.0,313.8,0.00,12.3,14.8,"01:00:56",1
"17/11/09","01:20",0.0,12.5,96.9,1011.6,276.6,1.6,2.8,233.4,0.00,12.1,14.9,"01:15:20",1
"17/11/09","01:30",0.0,12.6,95.8,1011.2,293.0,1.6,3.2,277.1,0.00,12.0,14.5,"01:23:28",1
"17/11/09","01:40",0.0,12.8,92.5,1011.4,269.4,1.3,2.8,316.0,0.00,11.7,14.7,"01:39:22",1
"17/11/09","01:50",0.0,12.1,92.0,1011.9,283.8,1.0,2.1,326.9,0.00,10.9,14.4,"01:46:00",1
"17/11/09","02:00",0.0,11.6,95.3,1011.9,316.5,1.1,2.6,324.9,0.00,10.9,14.6,"01:55:04",1
"17/11/09","02:10",0.0,11.1,96.0,1011.6,294.0,1.2,2.4,326.4,0.00,10.5,14.3,"02:06:48",1
"17/11/09","02:20",0.0,10.7,96.2,1011.9,310.7,1.1,2.1,334.7,0.00,10.2,14.5,"02:13:28",1
"17/11/09","02:30",0.0,10.6,97.4,1011.9,315.0,1.5,2.4,334.2,0.00,10.2,14.4,"02:29:20",1
"17/11/09","02:40",0.0,10.4,97.3,1011.6,313.4,1.5,2.9,338.4,0.00,10.0,14.2,"02:30:32",1
"17/11/09","02:50",0.0,10.3,98.0,1011.9,301.8,1.3,2.6,326.6,0.00,10.0,14.3,"02:48:32",1
"17/11/09","03:00",0.0,10.3,96.9,1011.4,307.8,1.1,1.8,338.7,0.00,9.9,14.1,"02:53:20",1
"17/11/09","03:10",0.0,9.9,97.6,1011.6,316.3,1.1,1.6,351.3,0.00,9.6,14.1,"03:07:28",1
"17/11/09","03:20",0.0,9.5,98.3,1011.9,295.2,1.1,1.6,311.3,0.00,9.3,14.1,"03:17:52",1
"17/11/09","03:30",0.0,9.7,97.7,1011.6,327.7,1.1,1.9,340.2,0.00,9.4,13.9,"03:24:16",1
"17/11/09","03:40",0.0,9.2,98.6,1011.4,302.9,1.1,1.7,300.6,0.00,9.0,13.9,"03:39:04",1
"17/11/09","03:50",0.0,9.2,97.4,1011.9,313.2,1.0,1.7,309.3,0.00,8.8,13.9,"03:46:56",1
"17/11/09","04:00",0.0,9.0,98.9,1011.6,319.2,1.1,1.8,352.6,0.00,8.9,13.9,"03:51:52",1
"17/11/09","04:10",0.0,8.8,97.9,1012.3,311.1,1.2,1.9,328.3,0.00,8.5,13.6,"04:02:16",1
"17/11/09","04:20",0.0,8.8,99.2,1011.9,313.9,1.0,1.8,303.2,0.00,8.7,13.8,"04:19:28",1
"17/11/09","04:30",0.0,8.9,98.3,1011.6,317.3,1.1,2.4,328.5,0.00,8.7,13.7,"04:24:24",1
"17/11/09","04:40",0.0,9.0,98.6,1012.1,316.9,1.0,2.0,334.1,0.00,8.8,13.7,"04:35:28",1
"17/11/09","04:50",0.0,8.7,98.1,1012.1,298.5,1.0,1.7,331.4,0.00,8.5,13.4,"04:41:36",1
"17/11/09","05:00",0.0,8.6,98.5,1012.3,311.5,1.2,2.0,322.3,0.00,8.4,13.4,"04:54:32",1
"17/11/09","05:10",0.0,8.6,98.8,1012.3,304.2,0.8,1.6,269.1,0.00,8.5,13.6,"05:05:36",1
"17/11/09","05:20",0.0,8.5,98.4,1012.6,312.8,0.8,1.4,350.2,0.00,8.3,13.3,"05:10:08",1
"17/11/09","05:30",0.0,8.5,98.9,1012.3,330.9,0.8,2.1,300.0,0.00,8.4,13.4,"05:23:36",1
"17/11/09","05:40",0.0,8.1,98.7,1012.3,298.5,0.8,1.9,337.4,0.00,7.9,13.2,"05:39:20",1
"17/11/09","05:50",0.0,8.1,98.8,1012.6,280.8,0.7,1.6,248.4,0.00,8.0,13.2,"05:42:08",1
"17/11/09","06:00",0.0,8.1,98.7,1012.6,325.4,1.1,1.7,313.8,0.00,7.9,13.3,"05:51:44",1
"17/11/09","06:10",0.0,8.0,98.5,1013.0,297.1,1.1,1.8,312.8,0.00,7.8,13.3,"06:00:56",1
"17/11/09","06:20",0.0,8.3,99.2,1012.6,286.9,1.1,1.9,314.5,0.00,8.2,13.2,"06:10:56",1
"17/11/09","06:30",0.0,8.2,99.2,1013.3,304.4,1.2,2.1,332.9,0.00,8.1,13.0,"06:26:40",1
"17/11/09","06:40",0.0,8.5,99.7,1013.3,315.5,1.3,2.7,338.2,0.00,8.5,12.9,"06:35:28",1
"17/11/09","06:50",0.0,8.3,98.6,1013.0,320.4,1.1,1.7,321.6,0.00,8.1,12.9,"06:47:04",1
"17/11/09","07:00",0.0,8.3,98.7,1013.0,295.7,0.8,1.4,312.9,0.00,8.1,13.1,"06:53:52",1
"17/11/09","07:10",0.0,8.3,98.7,1013.3,292.1,0.7,1.9,347.8,0.00,8.1,13.1,"07:02:32",1
"17/11/09","07:20",0.0,9.0,99.2,1013.5,324.3,0.6,1.4,357.3,0.02,8.9,13.0,"07:11:28",1
"17/11/09","07:30",0.0,9.5,98.8,1013.5,318.5,1.1,1.7,335.2,0.01,9.4,13.0,"07:22:32",1
"17/11/09","07:40",0.0,9.7,98.9,1014.0,319.9,1.1,1.6,320.1,0.00,9.6,13.0,"07:31:52",1
"17/11/09","07:50",0.0,10.2,98.6,1014.0,317.2,1.1,1.7,336.8,0.03,10.0,13.0,"07:47:44",1
"17/11/09","08:00",0.0,10.8,98.5,1014.2,305.5,1.1,1.8,332.5,0.01,10.6,13.1,"07:50:40",1
"17/11/09","08:10",0.0,11.0,98.5,1014.5,318.8,0.7,1.2,310.6,0.01,10.8,13.1,"08:00:08",1
"17/11/09","08:20",0.0,11.1,97.5,1014.5,316.9,1.1,2.4,339.8,0.02,10.8,13.2,"08:19:46",1
"17/11/09","08:30",0.0,12.1,94.1,1014.9,323.1,1.6,2.7,329.7,0.08,11.2,13.3,"08:28:32",1
"17/11/09","08:40",0.0,12.5,90.4,1015.2,318.2,1.5,2.7,332.6,0.05,11.0,13.4,"08:37:12",1
"17/11/09","08:50",0.0,13.4,87.6,1015.4,327.9,1.1,2.1,317.5,0.12,11.4,13.3,"08:49:20",1
"17/11/09","09:00",0.0,14.3,83.6,1014.9,322.2,0.8,1.9,354.9,0.19,11.6,13.4,"08:54:24",1
"17/11/09","09:10",0.0,15.5,73.3,1015.2,347.3,1.3,3.7,342.3,0.25,10.8,13.6,"09:05:04",1
"17/11/09","09:20",0.0,15.9,73.5,1015.4,273.2,1.3,2.8,239.4,0.26,11.2,13.8,"09:16:08",1
"17/11/09","09:30",0.0,15.4,71.7,1015.9,311.7,2.1,5.4,232.0,0.14,10.4,13.9,"09:22:08",1
"17/11/09","09:40",0.0,16.0,66.9,1016.6,330.5,2.6,4.9,320.2,0.28,9.9,14.1,"09:33:12",1
"17/11/09","09:50",0.0,16.4,63.3,1016.4,309.5,1.6,4.1,329.0,0.32,9.5,14.2,"09:49:04",1
"17/11/09","10:00",0.0,16.9,66.2,1016.6,334.4,2.1,4.1,331.1,0.31,10.6,14.3,"09:58:24",1
"17/11/09","10:10",0.0,16.5,61.5,1016.6,342.6,2.2,4.9,332.4,0.32,9.1,14.4,"10:07:44",1
"17/11/09","10:20",0.0,16.4,62.2,1016.4,343.0,1.7,4.2,329.1,0.19,9.2,14.7,"10:18:08",1
"17/11/09","10:30",0.0,17.0,62.5,1016.1,338.5,1.5,3.6,345.4,0.30,9.8,14.7,"10:28:24",1
"17/11/09","10:40",0.0,16.0,62.2,1015.9,343.7,2.5,4.9,314.1,0.12,8.8,14.9,"10:32:48",1
"17/11/09","10:50",0.0,16.4,63.6,1015.9,333.9,2.3,5.2,338.3,0.23,9.5,14.7,"10:48:24",1
"17/11/09","11:00",0.0,16.9,61.7,1015.6,336.1,3.0,5.6,339.1,0.31,9.5,14.9,"10:55:20",1
"17/11/09","11:10",0.0,16.1,62.9,1015.6,337.8,2.1,5.0,352.1,0.18,9.1,15.1,"11:02:00",1
"17/11/09","11:20",0.0,17.0,58.4,1014.9,359.8,2.2,6.3,344.1,0.37,8.8,15.2,"11:16:32",1
"17/11/09","11:30",0.0,16.3,62.8,1014.9,350.9,2.0,4.9,333.9,0.22,9.2,15.2,"11:22:00",1
"17/11/09","11:40",0.0,15.9,63.6,1015.2,331.6,3.0,6.4,331.7,0.10,9.1,15.3,"11:33:28",1
"17/11/09","11:50",0.0,16.8,62.8,1015.2,335.1,2.2,6.2,336.4,0.28,9.7,15.5,"11:41:12",1
"17/11/09","12:00",0.0,16.7,60.4,1015.2,332.0,2.7,7.3,347.7,0.41,9.0,15.5,"11:58:00",1
"17/11/09","12:10",0.0,17.5,58.5,1014.7,345.2,2.1,6.2,350.1,0.42,9.3,15.7,"12:01:44",1
"17/11/09","12:20",0.0,16.7,55.4,1014.7,3.3,2.2,4.8,355.2,0.31,7.8,15.7,"12:19:44",1
"17/11/09","12:30",0.0,16.8,55.1,1014.7,338.5,3.5,6.2,333.2,0.38,7.8,15.8,"12:25:04",1
"17/11/09","12:40",0.0,16.2,55.1,1014.5,328.2,3.2,8.9,334.5,0.28,7.2,15.8,"12:36:24",1
"17/11/09","12:50",0.0,17.0,51.6,1014.9,345.0,3.4,6.0,355.6,0.38,7.0,15.8,"12:44:08",1
"17/11/09","13:00",0.0,16.5,52.1,1014.7,342.5,3.9,7.0,309.1,0.32,6.7,16.3,"12:58:56",1
"17/11/09","13:10",0.0,16.9,50.6,1014.7,336.9,3.0,5.1,36.8,0.33,6.6,16.1,"13:07:04",1
"17/11/09","13:20",0.0,16.3,51.2,1014.5,348.9,3.0,8.1,335.1,0.18,6.3,16.0,"13:18:56",1
"17/11/09","13:30",0.0,16.1,51.3,1014.7,340.0,3.2,6.4,340.7,0.15,6.1,16.0,"13:25:36",1
"17/11/09","13:40",0.0,17.0,50.4,1014.5,316.4,2.7,5.8,317.0,0.30,6.7,16.0,"13:31:36",1
"17/11/09","13:50",0.0,16.1,51.3,1014.7,339.4,3.4,7.8,350.7,0.07,6.1,15.7,"13:48:08",1
"17/11/09","14:00",0.0,16.1,53.9,1014.5,340.0,2.7,5.4,339.5,0.11,6.8,15.7,"13:54:32",1
"17/11/09","14:10",0.0,15.8,53.8,1014.7,332.0,2.7,5.6,335.6,0.12,6.5,15.7,"14:08:32",1
"17/11/09","14:20",0.0,16.7,51.3,1014.7,323.9,3.2,7.5,338.3,0.28,6.6,16.0,"14:16:56",1
"17/11/09","14:30",0.0,16.7,50.4,1014.7,330.7,3.4,9.0,327.2,0.27,6.4,15.9,"14:21:20",1
"17/11/09","14:40",0.0,16.3,54.5,1015.2,330.3,2.7,4.9,329.9,0.21,7.2,15.7,"14:39:28",1
"17/11/09","14:50",0.0,15.6,56.6,1014.7,341.2,3.4,5.9,326.6,0.06,7.1,16.0,"14:46:24",1
"17/11/09","15:00",0.0,15.4,58.7,1014.9,327.5,2.2,5.0,339.2,0.06,7.4,15.7,"14:54:24",1
"17/11/09","15:10",0.0,15.3,59.7,1014.7,326.8,2.8,5.0,326.7,0.09,7.6,15.9,"15:04:32",1
"17/11/09","15:20",0.0,15.2,59.9,1014.7,327.5,3.1,5.1,337.4,0.05,7.5,15.9,"15:17:20",1
"17/11/09","15:30",0.0,15.0,62.5,1015.4,327.7,2.2,4.4,344.3,0.04,7.9,15.8,"15:23:52",1
"17/11/09","15:40",0.0,15.0,60.9,1015.4,340.2,2.1,5.5,322.5,0.03,7.6,15.5,"15:31:36",1
"17/11/09","15:50",0.0,14.7,61.7,1015.2,332.3,2.8,6.3,330.1,0.03,7.5,15.8,"15:46:16",1
"17/11/09","16:00",0.0,14.8,62.1,1015.6,330.1,2.2,3.6,348.8,0.03,7.7,15.5,"15:50:40",1
"17/11/09","16:10",0.0,14.8,62.0,1015.4,323.6,1.8,3.4,337.2,0.03,7.6,15.4,"16:00:08",1
"17/11/09","16:20",0.0,14.9,62.5,1015.6,294.5,1.1,1.9,274.8,0.02,7.8,15.5,"16:17:04",1
"17/11/09","16:30",0.0,14.8,61.3,1015.9,329.1,1.6,2.9,350.2,0.01,7.5,15.3,"16:20:32",1
"17/11/09","16:40",0.0,14.4,62.0,1016.1,327.8,2.5,4.8,326.1,0.00,7.3,15.2,"16:34:32",1
"17/11/09","16:50",0.0,14.1,62.9,1015.9,330.6,2.3,4.2,347.9,0.00,7.2,15.1,"16:40:08",1
"17/11/09","17:00",0.0,13.7,64.9,1016.1,329.8,2.1,4.1,341.1,0.00,7.3,15.2,"16:52:40",1
"17/11/09","17:10",0.0,13.5,66.2,1016.1,339.1,2.0,3.4,328.0,0.00,7.4,15.1,"17:00:24",1
"17/11/09","17:20",0.0,13.2,67.5,1016.4,325.2,1.6,2.8,333.6,0.00,7.4,15.1,"17:10:26",1
"17/11/09","17:30",0.0,13.1,66.6,1016.6,304.9,1.8,4.4,313.9,0.00,7.1,14.8,"17:25:06",1
"17/11/09","17:40",0.0,12.9,68.1,1016.8,323.9,2.0,4.0,337.0,0.00,7.2,15.0,"17:37:54",1
"17/11/09","17:50",0.0,12.6,70.0,1016.8,326.6,1.7,3.3,339.9,0.00,7.3,14.8,"17:47:52",1
"17/11/09","18:00",0.0,12.2,72.1,1016.8,318.2,1.6,3.3,324.0,0.00,7.4,14.8,"17:55:08",1
"17/11/09","18:10",0.0,11.5,75.1,1016.6,299.3,1.0,1.8,314.3,0.00,7.3,14.6,"18:02:24",1
"17/11/09","18:20",0.0,11.0,78.2,1016.8,298.9,1.5,2.9,320.8,0.00,7.4,14.4,"18:19:50",1
"17/11/09","18:30",0.0,10.9,78.5,1017.1,295.6,1.5,2.2,325.6,0.00,7.4,14.5,"18:22:06",1
"17/11/09","18:40",0.0,10.7,79.5,1017.3,317.4,1.2,2.0,326.8,0.00,7.3,14.5,"18:35:42",1
"17/11/09","18:50",0.0,9.9,81.9,1017.1,311.6,1.2,2.2,324.1,0.00,7.0,14.1,"18:40:02",1
"17/11/09","19:00",0.0,9.4,85.9,1017.3,319.8,1.1,2.2,316.1,0.00,7.2,14.6,"18:50:08",1
"17/11/09","19:10",0.0,9.2,86.9,1017.5,301.4,1.3,2.0,297.4,0.00,7.2,14.2,"19:01:44",1
"17/11/09","19:20",0.0,8.8,88.7,1017.3,306.0,1.3,2.5,321.3,0.00,7.1,14.2,"19:10:24",1
"17/11/09","19:30",0.0,8.5,88.3,1017.1,314.0,1.3,2.1,346.0,0.00,6.7,14.2,"19:20:40",1
"17/11/09","19:40",0.0,8.1,90.7,1017.3,302.9,1.3,2.7,334.1,0.00,6.7,13.8,"19:39:52",1
"17/11/09","19:50",0.0,8.0,92.0,1017.3,294.3,1.0,2.8,335.3,0.00,6.8,13.8,"19:40:08",1
"17/11/09","20:00",0.0,8.2,92.8,1017.3,316.7,1.8,3.4,323.5,0.00,7.1,13.8,"19:57:36",1
"17/11/09","20:10",0.0,8.0,91.6,1017.1,308.7,1.5,2.6,315.6,0.00,6.8,13.7,"20:07:44",1
"17/11/09","20:20",0.0,7.7,91.9,1017.3,309.6,1.6,2.7,324.1,0.00,6.5,13.6,"20:14:08",1
"17/11/09","20:30",0.0,7.5,93.5,1017.1,305.8,1.6,2.6,307.1,0.00,6.6,13.5,"20:25:36",1
"17/11/09","20:40",0.0,7.2,93.4,1017.8,306.3,1.7,2.8,317.2,0.00,6.2,13.7,"20:38:08",1
"17/11/09","20:50",0.0,7.1,94.8,1018.0,306.6,2.0,2.8,313.8,0.00,6.4,13.3,"20:49:12",1
"17/11/09","21:00",0.0,7.0,94.3,1017.5,314.7,1.7,2.8,322.2,0.00,6.2,13.4,"20:54:08",1
"17/11/09","21:10",0.0,7.1,95.5,1017.3,312.2,2.0,2.7,313.8,0.00,6.5,13.2,"21:05:04",1
"17/11/09","21:20",0.0,7.1,95.2,1017.3,302.2,2.0,2.6,311.2,0.00,6.4,13.2,"21:18:08",1
"17/11/09","21:30",0.0,7.1,94.8,1017.5,304.1,1.7,2.4,317.8,0.00,6.4,13.3,"21:24:08",1
"17/11/09","21:40",0.0,7.1,95.0,1017.5,309.5,1.8,2.6,323.0,0.00,6.4,13.1,"21:37:12",1
"17/11/09","21:50",0.0,7.1,95.0,1017.5,298.6,1.8,2.7,311.2,0.00,6.4,13.0,"21:49:12",1
"17/11/09","22:00",0.0,7.1,94.1,1017.8,289.6,2.0,2.7,298.7,0.00,6.3,12.9,"21:55:28",1
"17/11/09","22:10",0.0,6.9,94.1,1017.5,299.5,1.7,2.5,311.5,0.00,6.1,12.8,"22:01:36",1
"17/11/09","22:20",0.0,6.9,94.8,1017.5,308.0,1.7,2.8,321.1,0.00,6.2,12.8,"22:16:16",1
"17/11/09","22:30",0.0,7.0,94.6,1017.3,299.5,2.1,3.1,321.7,0.00,6.2,12.8,"22:21:04",1
"17/11/09","22:40",0.0,7.2,93.6,1017.5,314.1,2.5,3.7,325.4,0.00,6.3,12.7,"22:37:20",1
"17/11/09","22:50",0.0,7.3,93.5,1017.3,306.9,2.2,2.9,322.3,0.00,6.4,12.8,"22:44:16",1
"17/11/09","23:00",0.0,7.3,91.7,1017.3,315.3,1.8,3.6,319.4,0.00,6.1,12.6,"22:54:00",1
"17/11/09","23:10",0.0,6.8,93.1,1017.5,302.7,1.1,1.8,309.9,0.00,5.8,12.7,"23:07:36",1
"17/11/09","23:20",0.0,6.8,93.4,1017.8,320.8,1.7,2.4,312.4,0.00,5.9,12.6,"23:15:52",1
"17/11/09","23:30",0.0,6.7,94.1,1017.8,296.1,1.5,2.4,309.2,0.00,5.9,12.6,"23:29:52",1
"17/11/09","23:40",0.0,6.9,93.8,1017.5,312.4,2.3,3.5,314.0,0.00,6.0,12.4,"23:31:28",1
"17/11/09","23:50",0.0,7.2,92.8,1017.3,324.1,3.0,4.8,339.2,0.00,6.2,12.5,"23:49:20",1
"17/11/09","24:00",0.0,7.3,91.1,1017.3,315.2,2.8,4.7,317.3,0.00,6.0,12.3,"23:52:56",1
